sat.trackr.live / text

‹ back to catalog

STARLINK-11718 [DTC]

NORAD 64132 · 2025-111K

PAYLOAD ACTIVE UNKNOWN

§ Identity

Operator
Country
US
Launch date
2025-05-24
Launch site
AFETR
Launch vehicle
Mass (kg)
RCS (m²)

Purposes: comms

External: N2YO · Heavens-Above · Gunter

§ Orbital elements

Epoch: 2026-09-20T22:37:18.431616Z

Period
91.67 min
Inclination
42.9988°
Eccentricity
0.0000975
Mean motion
15.70870967 rev/d
Perigee alt
355.7 km
Apogee alt
357.1 km
Semi-major
6,734.5 km
B*
8.1842e-4
RAAN
237.2555°
Arg perigee
245.7938°
Mean anomaly
114.2828°
Rev number
7,739

§ Raw data

STARLINK-11718 [DTC]1 64132U 25111K   26263.94257444  .00106051  00000+0  81842-3 0  99922 64132  42.9988 237.2555 0000975 245.7938 114.2828 15.70870967 77398

JSON: /api/v1/satellites/64132 · /tle

For live sub-satellite position, see the globe view (requires WebGL).

§ Visibility from observer

Set your observer location to see the next 7 days of passes ≥ 10°. The values pass through the URL so the page stays shareable.

No JS? Fill the form by hand. The geolocation button needs JavaScript.